Temp
6 6 6 6 6 6 5 5 5 5 5 5 5 5 5 6 6 6 7 7 6 6 6 6 6 6 6 7 7 7 7 7 7 7 7 7 7 7 8 7 6 6 5 4 4 4 4 4 5 4 4 4 4 4 4 4 4 4 4 4 4 4 4 5 5 5 6 6 7 8 9 9 9 10 10 11 11 12 12 12 12 12 12 12 13
5 5 5 5 5 5 5 5 5 5 5 5 5 5 5 6 6 7 7 7 6 6 6 6 6 6 6 7 7 7 7 7 7 7 7 7 7 7 7 6 5 4 4 4 4 4 4 4 4 4 3 3 3 3 3 3 3 3 3 3 3 3 3 3 4 4 4 5 6 7 9 8 8 9 9 10 10 11 11 12 12 12 12 12 12
5 5 5 5 5 5 5 5 4 4 5 5 6 6 6 6 6 6 6 6 6 6 6 6 5 5 5 6 6 6 6 6 7 6 6 6 6 5 5 4 4 4 4 4 4 4 4 4 4 4 3 3 2 2 2 2 2 2 2 2 2 2 2 3 3 3 3 4 4 5 7 7 7 8 9 9 10 10 11 11 12 12 12 12 12
5 5 5 5 5 4 4 4 4 5 6 6 7 7 6 6 6 6 5 5 6 6 6 5 5 4 4 5 6 6 6 6 6 6 6 6 5 4 4 4 3 3 3 3 3 3 3 4 3 3 2 2 2 1 1 2 2 1 1 1 1 1 1 2 2 2 2 2 3 4 5 6 7 7 8 9 9 10 10 11 12 12 12 12 12
5 4 4 4 4 4 4 4 5 6 7 7 7 7 7 6 6 5 5 5 5 5 5 4 4 4 4 5 5 6 6 6 6 6 6 6 5 4 3 3 3 3 3 3 3 3 3 3 2 2 1 1 1 1 1 1 1 1 1 1 1 1 1 1 1 1 1 2 2 3 3 5 5 6 7 7 8 9 9 10 11 12 12 12 12
4 4 4 4 4 4 4 4 6 6 6 6 7 7 6 5 5 5 5 5 5 4 4 4 4 3 4 5 5 5 6 5 6 6 6 6 5 3 3 3 3 3 3 3 3 2 2 2 1 1 1 0 0 0 0 0 0 1 0 0 0 0 0 1 1 1 1 1 2 2 3 3 4 5 6 7 7 8 9 10 10 11 12 12 12
4 4 4 4 4 4 4 5 6 6 6 6 6 6 6 5 5 5 5 4 4 4 4 3 3 3 4 5 5 5 5 5 5 5 5 6 4 2 2 3 3 3 3 2 2 2 2 2 1 1 0 -0 -0 -0 -0 -0 -0 0 0 -0 0 0 0 1 1 1 1 1 1 2 2 3 3 4 5 6 7 8 8 9 10 11 11 12 12
4 4 4 4 4 4 5 5 6 6 6 6 6 6 6 6 6 6 5 4 3 3 3 3 3 3 4 4 5 5 5 5 5 5 5 6 4 2 2 3 2 2 2 2 2 2 2 2 1 1 -0 -0 -0 -1 -0 -0 -0 -0 0 0 -0 -0 0 0 0 0 0 1 1 1 2 2 3 3 4 5 6 7 8 9 9 10 10 10 11
4 4 4 4 4 5 5 6 6 6 6 6 6 6 6 6 6 5 5 4 3 3 3 3 3 2 3 4 4 5 5 5 5 5 5 6 5 3 2 2 2 2 2 2 2 2 2 1 1 0 -0 -1 -1 -1 -0 0 0 0 1 1 0 -0 -0 -1 -0 -0 -0 0 1 1 1 2 2 3 3 4 4 5 6 7 7 8 9 9 10
4 4 4 4 4 5 5 5 5 5 5 5 5 6 6 6 6 5 5 5 4 3 3 2 2 2 3 4 4 4 4 4 4 5 5 5 5 4 2 2 2 2 2 1 1 1 1 1 0 -0 -1 -1 -1 -1 -0 1 1 1 1 1 0 -0 -1 -1 -0 -0 -0 0 0 1 1 1 1 2 2 3 3 4 4 5 6 7 8 9 10
5 5 5 4 4 4 5 4 4 5 5 5 5 5 5 5 5 5 5 5 4 3 2 2 2 2 2 3 4 3 4 4 4 4 4 5 5 4 2 2 2 2 1 1 1 1 1 0 -0 -1 -1 -1 -1 -1 0 1 2 2 2 2 1 -0 -1 -0 -0 -0 -0 -0 0 0 0 1 1 1 2 2 2 3 3 4 5 5 6 8 9
5 5 5 5 4 4 4 4 4 5 5 5 5 5 5 5 5 5 5 5 4 3 3 3 2 2 2 3 3 3 3 4 4 4 4 5 5 4 2 2 2 1 1 1 1 1 0 -0 -0 -1 -1 -1 -1 -1 0 1 2 2 2 2 1 -0 -1 -1 -1 -1 -0 -0 -0 0 0 0 1 1 1 1 2 2 3 3 4 4 5 6 7
5 5 5 4 4 4 4 5 5 6 6 6 6 5 5 4 4 4 4 4 4 4 3 3 2 1 1 2 3 3 3 3 4 4 4 5 5 4 2 1 1 1 1 1 1 1 0 -0 -1 -1 -1 -1 -2 -1 -0 1 1 2 2 2 1 1 0 -0 -1 -1 -1 -1 -1 -0 -0 -0 0 0 1 1 1 1 2 2 3 3 4 5 5
5 5 4 4 4 4 5 5 5 5 5 5 5 5 4 4 3 3 3 3 3 3 3 3 3 2 1 1 2 3 3 3 3 4 4 4 4 3 1 1 1 1 1 1 1 1 0 -0 -0 -1 -1 -2 -2 -1 -0 1 1 1 1 1 1 1 1 -0 -1 -1 -1 -1 -1 -1 -1 -1 -1 -0 -0 0 0 1 1 2 2 2 3 4 4
4 4 4 4 4 4 4 5 4 4 4 4 4 4 3 3 3 2 2 2 3 3 3 3 3 2 1 1 2 3 3 3 3 4 4 4 4 2 1 1 1 1 2 2 2 1 0 -0 -0 -1 -1 -2 -1 -1 -0 0 1 0 0 0 0 1 0 -0 -0 -0 -0 -1 -1 -1 -1 -1 -1 -1 -0 -0 0 0 1 1 1 2 2 3 3
4 4 4 4 4 4 4 4 4 4 4 4 4 3 3 3 2 2 2 2 2 3 3 3 3 2 1 1 1 3 3 3 3 3 3 4 4 2 1 1 1 1 2 2 2 1 1 0 -0 -1 -1 -1 -1 -0 -0 0 0 -0 -0 -0 -0 -0 -0 -0 0 0 0 -0 -1 -1 -1 -1 -1 -1 -0 -0 0 0 0 1 1 1 2 2 3
5 4 4 4 4 4 4 4 4 3 3 3 3 3 2 2 3 2 2 2 2 2 2 3 3 3 2 1 1 2 3 3 3 3 3 4 4 2 1 1 2 2 2 2 2 2 1 0 0 -0 -1 -1 -1 -0 -1 -1 -1 -1 -1 -1 -1 -0 -0 0 1 1 1 0 -1 -1 -1 -1 -1 -0 -0 -0 0 0 0 1 1 1 2 2 3
5 5 5 4 4 4 4 4 4 3 3 3 3 3 2 3 3 3 2 2 2 2 2 2 2 3 3 3 2 2 3 3 3 3 3 3 3 2 1 1 1 2 2 2 2 2 1 1 0 -0 -1 -0 -0 -0 -1 -1 -1 -1 -1 -1 -1 -0 -0 0 0 0 -0 -0 -1 -1 -1 -1 -1 -0 -0 -0 -0 -0 0 1 1 2 2 3 4
5 5 5 4 4 4 4 4 3 3 3 3 3 3 3 3 3 3 3 3 3 2 2 2 2 2 2 3 3 3 2 3 3 3 3 3 3 2 1 1 1 1 2 2 2 2 1 1 0 -0 -0 -0 -0 -0 -1 -1 -1 -1 -1 -1 -1 -1 -0 0 -0 -1 -1 -1 -1 -1 -1 -1 -1 -1 -0 -0 -0 -0 0 1 1 2 3 3 4
5 4 4 4 4 4 3 3 3 3 3 3 3 3 3 3 3 3 3 3 3 3 2 2 2 2 1 1 2 2 2 2 2 3 3 3 3 2 1 1 1 1 1 2 2 2 1 0 -0 -1 -1 -0 -1 -1 -1 -1 -1 -1 -1 -1 -0 -0 -0 -0 -0 -1 -1 -1 -1 -1 -1 -1 -1 -1 -0 -0 -0 0 1 1 1 2 3 3 4
4 4 4 4 4 3 3 3 3 3 3 3 3 3 3 3 3 3 3 3 3 2 3 2 2 2 1 1 2 2 2 2 2 2 3 3 2 2 1 1 1 1 1 1 1 1 1 1 -0 -1 -1 -1 -1 -1 -1 -1 -1 -1 -1 -0 -0 -0 -0 -0 -0 -0 -1 -1 -1 -1 -1 -1 -1 -1 -1 -0 -0 1 1 2 2 2 3 3 4
4 4 4 4 3 3 3 3 3 3 3 3 3 3 3 3 3 3 3 3 3 3 3 3 2 2 2 1 1 2 2 2 2 2 3 2 2 2 1 1 2 1 0 0 1 1 1 0 -1 -1 -1 -1 -1 -0 -0 -1 -1 -1 -1 -0 0 0 -0 -0 0 -0 -1 -1 -1 -1 -1 -2 -2 -1 -1 -1 -0 1 2 2 2 3 3 4 4
4 4 4 3 3 3 4 3 3 2 3 3 3 3 3 3 3 3 3 3 3 3 3 3 3 3 3 2 2 1 1 2 2 2 3 3 2 1 1 1 1 1 -0 -0 0 0 -0 -0 -1 -1 -1 -1 -0 -0 -0 -0 -1 -1 -1 -0 -0 -0 -1 -1 -0 -0 -1 -1 -1 -1 -1 -2 -2 -2 -1 -1 -0 1 1 2 2 3 3 4 4
4 4 3 3 3 3 4 3 3 3 3 3 3 3 3 3 3 4 4 4 4 4 4 4 3 3 3 3 2 2 1 1 2 2 3 2 2 1 1 1 1 1 -0 -1 -0 -0 -0 -0 -0 -1 -0 -0 -0 0 0 -0 -0 -1 -1 -1 -1 -1 -1 -1 -0 -1 -1 -1 -1 -1 -1 -2 -2 -2 -2 -2 -1 0 1 2 2 2 2 3 3
4 4 3 3 3 3 3 3 3 3 3 3 3 3 3 4 4 4 4 4 4 4 4 4 4 3 3 3 3 2 2 1 1 2 2 2 2 1 1 1 1 1 -0 -1 -0 -0 -0 -0 -0 -0 0 0 0 0 0 0 -0 -0 -0 -1 -1 -1 -1 -1 -1 -1 -2 -2 -1 -2 -1 -2 -2 -2 -2 -1 -1 -0 1 1 2 2 2 2 3
4 4 4 3 3 3 3 3 3 3 3 4 4 4 4 4 4 4 4 4 4 4 4 4 3 3 3 3 3 2 2 1 2 2 2 2 2 1 1 1 1 1 0 0 0 -0 -0 0 0 0 1 1 0 0 1 0 0 0 0 -0 -1 -1 -1 -1 -2 -2 -2 -2 -2 -2 -2 -2 -2 -2 -2 -1 -1 -1 0 0 1 1 1 1 2
4 4 4 4 4 4 4 4 3 3 4 4 4 4 4 4 4 4 4 4 4 4 4 3 3 3 3 3 3 2 2 1 2 2 2 2 2 2 1 1 1 1 1 1 0 0 0 0 0 0 1 1 0 0 1 1 0 0 0 0 -0 -0 -1 -1 -1 -2 -2 -2 -2 -2 -2 -2 -2 -2 -2 -2 -1 -1 -1 -0 0 0 0 1 1
4 4 4 4 4 4 4 4 4 4 4 4 4 4 4 4 4 3 3 3 3 3 3 3 3 3 3 2 2 2 2 1 2 2 2 2 2 1 1 1 1 1 1 1 0 0 0 1 1 1 1 1 0 1 1 1 0 0 1 0 0 -0 -0 -1 -1 -1 -1 -1 -1 -2 -2 -2 -2 -2 -2 -2 -2 -1 -1 -1 -0 -1 -0 0 0
4 4 4 4 4 4 4 4 4 4 4 4 4 4 4 3 3 3 3 3 3 3 3 3 3 2 2 2 2 2 1 2 2 2 2 2 2 1 1 1 1 1 1 0 0 0 0 1 1 1 1 1 0 0 1 1 1 0 1 1 0 0 0 -0 -1 -1 -1 -1 -1 -2 -2 -2 -2 -2 -2 -2 -2 -2 -1 -1 -1 -1 -1 -0 -0
4 4 4 4 4 4 4 4 5 4 4 4 4 4 4 3 3 3 3 3 3 3 3 3 3 3 2 2 2 2 2 2 2 2 2 2 2 1 1 1 1 1 1 0 0 0 1 1 1 1 1 1 0 0 1 1 1 0 1 1 1 0 0 -0 -1 -1 -1 -1 -1 -1 -2 -1 -2 -2 -2 -2 -2 -2 -2 -2 -2 -1 -1 -1 -1
4 4 4 4 4 4 5 5 5 5 4 4 4 3 3 3 3 3 3 3 3 3 3 3 3 3 2 2 3 2 2 2 2 2 2 2 2 2 2 2 1 1 1 0 1 1 1 1 1 1 1 1 1 0 0 1 1 0 1 1 1 0 0 -0 -1 -1 -1 -1 -1 -1 -1 -1 -1 -2 -2 -2 -2 -2 -2 -2 -2 -2 -2 -2 -1
4 5 5 4 4 5 5 5 5 5 5 5 4 4 4 4 4 4 3 3 3 3 3 3 3 3 3 3 3 2 2 2 2 2 2 2 2 2 2 1 1 1 1 1 1 1 1 1 1 1 1 1 1 0 0 1 1 0 1 1 1 0 0 -0 -1 -1 -0 -1 -1 -1 -1 -1 -1 -1 -2 -2 -2 -2 -2 -2 -3 -3 -3 -2 -2
4 5 5 4 4 5 5 5 5 5 5 5 5 5 5 4 4 4 4 3 3 3 3 3 3 3 3 3 3 3 2 2 2 2 2 2 2 2 1 1 1 1 1 1 1 1 1 1 1 1 1 1 1 1 0 1 1 0 0 1 0 -0 -0 -1 -1 -1 -1 -0 -0 -1 -1 -1 -1 -1 -1 -1 -1 -2 -2 -2 -3 -3 -3 -3 -3
5 5 5 4 4 5 5 5 5 5 5 5 5 5 5 5 5 4 4 4 4 3 3 3 3 3 3 3 3 3 3 3 3 2 2 2 2 2 1 1 2 2 2 2 1 2 2 1 1 1 1 1 1 1 1 1 0 0 0 0 0 -0 -1 -1 -1 -1 -1 -1 -1 -0 -0 -1 -1 -1 -1 -1 -1 -1 -2 -2 -3 -3 -3 -3 -3
5 5 4 4 4 5 5 5 5 5 5 5 5 5 5 5 4 4 4 4 4 4 4 3 3 3 3 3 3 3 3 3 3 2 2 2 2 2 2 2 2 2 2 2 2 1 2 2 1 1 1 1 1 1 1 0 0 0 -0 -0 -0 -1 -1 -1 -1 -1 -1 -1 -1 -1 -0 -0 -0 -0 -1 -1 -1 -1 -1 -2 -2 -3 -3 -3 -3
5 4 4 4 5 5 5 5 5 5 5 5 5 5 5 5 5 5 5 4 4 4 4 4 4 3 3 3 3 3 3 3 3 3 2 2 2 2 2 2 2 2 2 2 2 1 2 2 1 1 1 1 1 1 1 0 0 0 -0 -0 -0 -1 -1 -1 -1 -2 -1 -1 -1 -1 -0 -0 -0 -0 -0 -1 -1 -1 -1 -1 -2 -2 -3 -3 -3
5 4 4 4 5 5 5 5 5 5 5 5 5 5 5 5 5 5 5 5 5 5 5 4 4 3 3 3 3 3 3 3 3 3 2 2 2 2 2 2 2 2 2 2 2 1 2 2 1 1 1 1 1 0 0 0 0 -0 -1 -1 -1 -1 -1 -1 -1 -2 -1 -1 -1 -1 -1 -0 -0 -0 -0 -0 -0 -1 -1 -1 -1 -2 -2 -2 -2
5 5 4 4 5 5 5 5 5 5 4 4 5 5 5 5 5 5 5 5 4 4 4 5 4 4 4 4 3 3 3 3 3 3 2 2 2 2 2 3 3 2 2 2 2 2 2 2 1 1 1 1 0 0 0 0 -0 -0 -1 -1 -1 -1 -1 -1 -1 -1 -2 -1 -1 -1 -1 -0 -0 -0 -0 -0 -0 -1 -1 -1 -1 -1 -2 -2 -2
5 5 4 4 4 5 5 5 5 4 4 4 5 5 5 5 5 5 5 5 4 4 4 4 4 5 4 4 3 3 3 3 3 3 3 3 2 2 3 3 3 2 2 2 2 2 1 1 1 1 1 0 0 -0 -0 -0 -0 -1 -1 -1 -1 -1 -1 -1 -1 -1 -2 -2 -1 -1 -1 -1 -1 -0 -0 -0 -0 -0 -0 -1 -1 -1 -1 -1 -2
5 4 4 4 4 5 5 5 5 5 4 5 5 5 5 5 5 5 5 5 5 5 4 4 5 5 4 4 3 3 3 3 3 3 3 3 3 3 3 3 3 2 2 2 2 2 1 1 1 1 0 0 -0 -0 -0 -0 -1 -1 -1 -1 -1 -1 -1 -1 -1 -1 -1 -2 -2 -1 -1 -1 -1 -1 -1 -0 -0 -0 -0 -0 -1 -1 -1 -1 -1
5 4 4 4 4 4 5 5 5 5 5 5 5 5 5 5 5 5 5 5 5 5 4 5 5 5 4 4 3 3 3 3 3 3 3 3 3 3 3 3 2 2 2 2 2 2 1 1 1 1 0 0 -0 -0 -1 -1 -1 -1 -1 -1 -1 -1 -1 -1 -1 -0 -1 -1 -2 -2 -2 -1 -1 -1 -1 -1 -0 -0 -0 -0 -1 -1 -1 -1 -1
5 4 4 4 4 4 4 5 5 5 5 5 5 5 5 5 5 5 5 5 5 4 4 5 5 5 4 4 3 3 3 3 2 3 3 3 3 3 3 3 3 2 2 2 2 1 1 1 1 0 0 -0 -0 -1 -1 -1 -1 -1 -1 -1 -1 -1 -1 -0 -0 0 -0 -1 -1 -2 -2 -1 -1 -1 -1 -1 -1 -0 -0 -1 -1 -1 -1 -1 -1
5 5 4 4 4 4 4 5 5 5 5 5 5 5 5 5 5 5 5 5 4 4 4 4 4 5 4 4 3 3 3 3 2 3 3 3 3 3 3 3 3 3 2 2 2 1 1 1 1 1 0 0 -0 -0 -0 -1 -1 -1 -1 -1 -1 -1 -1 -0 0 -0 -0 0 -0 -1 -2 -1 -1 -1 -1 -1 -1 -1 -0 -0 -0 -1 -1 -1 -1
5 5 5 4 4 4 4 5 5 5 5 5 5 5 5 5 5 5 5 5 4 4 4 4 4 4 4 4 4 3 3 3 3 3 3 3 3 3 3 3 3 2 2 2 2 1 1 1 1 1 1 1 0 -0 -0 -1 -1 -1 -1 -1 -1 -1 -1 -0 0 -0 -0 -0 -0 -1 -1 -1 -1 -1 -1 -1 -1 -1 -1 -0 -0 -0 -1 -1 -1
5 5 5 5 5 5 5 5 5 5 5 5 5 5 4 4 5 5 5 5 5 4 4 4 4 4 4 4 4 4 3 4 4 4 4 3 3 3 3 3 3 2 2 2 2 1 1 2 2 1 1 1 1 0 0 -0 -1 -0 -1 -1 -1 -0 -0 -0 0 -0 -1 -0 0 -1 -1 -1 -1 -1 -1 -1 -1 -1 -1 -1 -0 -0 -0 -1 -1
5 5 5 5 5 5 5 5 5 5 5 5 5 5 5 5 5 5 5 5 5 5 5 5 5 4 4 4 4 4 4 4 4 4 4 4 3 3 3 3 3 2 2 2 1 1 1 2 2 2 2 2 1 1 1 -0 -0 -0 -0 -1 -1 -0 -0 -0 0 -0 -0 0 0 -1 -1 -0 -1 -1 -1 -1 -1 -1 -1 -1 -1 -0 0 -0 -0
5 5 5 5 5 5 5 5 5 5 5 5 5 5 5 5 5 5 5 5 5 5 5 5 5 5 5 5 4 4 4 4 4 4 4 4 3 3 3 3 3 2 2 2 1 1 1 1 2 2 2 2 2 2 1 0 -0 -0 -0 -0 -0 0 0 0 0 -0 -0 0 0 -1 -1 -0 -0 -0 -0 -0 -1 -1 -1 -1 -1 -0 -0 0 0
5 5 5 5 5 5 5 5 5 5 5 5 5 5 5 5 5 5 5 5 5 4 4 4 5 5 5 5 5 5 4 4 4 4 4 4 4 3 3 3 2 2 2 2 1 1 1 1 2 2 2 2 2 2 2 1 0 -0 -0 -0 -0 0 0 0 0 0 -0 0 0 -1 -1 -1 -0 -0 -0 -0 -0 -0 -1 -1 -1 -0 -0 -0 -0
5 5 5 5 5 5 5 5 5 5 5 5 5 5 5 5 5 5 5 5 5 5 5 5 5 5 5 5 5 5 5 4 4 4 4 4 4 3 3 3 3 2 2 2 2 2 2 2 2 2 2 2 2 2 2 2 1 0 -0 -0 0 0 0 0 0 0 0 0 0 -0 -1 -1 -0 -0 -0 -0 -0 -0 -0 -0 -0 -1 -0 -0 -0
5 5 5 5 5 5 5 5 5 6 5 5 5 5 5 5 5 5 5 5 5 5 5 5 5 5 5 5 5 5 5 5 4 4 4 4 4 4 4 3 3 2 2 2 2 2 2 2 2 2 2 2 2 2 2 2 2 1 0 0 0 0 0 0 0 0 0 0 0 0 -0 -0 -0 -0 -0 -0 -0 -0 -0 -0 -0 -0 -0 -0 -0
5 5 5 5 5 5 5 5 5 5 6 6 5 5 5 5 5 5 5 5 5 5 5 5 5 5 5 5 5 5 5 5 5 5 5 5 5 4 4 4 3 3 2 2 2 2 2 2 2 2 2 2 2 2 2 2 1 1 1 1 1 1 0 0 0 0 0 0 0 0 -0 -0 -0 -0 -0 -0 -1 -0 -0 -0 -0 -1 -1 -0 -0
Height
1537 1536 1536 1536 1536 1537 1538 1538 1539 1539 1540 1541 1542 1543 1544 1544 1545 1545 1545 1546 1546 1546 1546 1546 1546 1546 1545 1545 1544 1543 1542 1542 1540 1539 1539 1537 1536 1535 1534 1533 1532 1530 1529 1528 1527 1526 1525 1524 1523 1522 1519 1517 1516 1514 1513 1511 1509 1508 1506 1504 1503 1501 1499 1496 1492 1486 1481 1481 1479 1475 1474 1472 1470 1470 1470 1469 1469 1468 1466 1465 1464 1463 1462 1462 1462
1536 1536 1536 1537 1537 1538 1539 1539 1540 1541 1541 1542 1543 1544 1545 1545 1546 1546 1546 1546 1546 1546 1546 1546 1546 1546 1545 1545 1544 1543 1542 1541 1540 1539 1538 1537 1536 1535 1534 1533 1532 1530 1530 1529 1528 1527 1525 1524 1523 1521 1519 1517 1515 1513 1512 1510 1507 1506 1504 1503 1501 1499 1497 1494 1491 1486 1480 1477 1475 1473 1471 1470 1468 1466 1466 1465 1465 1464 1463 1461 1460 1460 1460 1459 1459
1537 1537 1536 1538 1538 1539 1540 1540 1541 1542 1542 1543 1544 1544 1545 1546 1546 1547 1547 1547 1547 1547 1547 1547 1547 1546 1546 1545 1544 1543 1542 1541 1540 1539 1538 1537 1536 1535 1534 1533 1532 1531 1530 1529 1528 1527 1525 1524 1523 1521 1519 1516 1514 1512 1510 1508 1506 1504 1502 1501 1499 1496 1495 1493 1489 1485 1480 1474 1472 1470 1468 1467 1465 1463 1462 1461 1461 1460 1459 1457 1457 1457 1457 1457 1457
1538 1537 1537 1538 1539 1540 1541 1541 1542 1542 1543 1544 1544 1545 1546 1546 1547 1547 1547 1548 1547 1547 1547 1547 1547 1547 1546 1545 1544 1543 1542 1541 1540 1539 1537 1536 1535 1535 1534 1533 1532 1531 1531 1530 1528 1527 1526 1524 1523 1520 1518 1515 1513 1511 1509 1506 1504 1502 1500 1498 1497 1494 1492 1490 1487 1484 1479 1473 1470 1469 1467 1464 1462 1460 1459 1457 1456 1456 1455 1454 1453 1452 1453 1454 1454
1538 1537 1538 1539 1540 1541 1541 1542 1543 1543 1544 1545 1545 1546 1546 1547 1548 1548 1548 1548 1548 1548 1548 1548 1548 1547 1546 1545 1544 1543 1542 1541 1540 1539 1537 1536 1535 1535 1534 1533 1532 1532 1531 1530 1528 1527 1525 1524 1522 1520 1517 1515 1512 1510 1508 1506 1504 1502 1499 1497 1495 1493 1490 1487 1485 1482 1479 1474 1468 1465 1464 1462 1459 1458 1458 1456 1454 1452 1452 1451 1450 1447 1447 1449 1450
1538 1538 1539 1540 1541 1542 1542 1543 1544 1544 1545 1546 1546 1547 1547 1547 1548 1548 1548 1549 1549 1549 1549 1549 1549 1548 1547 1545 1544 1544 1542 1541 1540 1538 1537 1536 1535 1535 1535 1534 1533 1532 1531 1530 1528 1527 1525 1523 1521 1519 1517 1514 1512 1510 1507 1505 1503 1501 1499 1496 1494 1491 1488 1485 1483 1480 1477 1473 1468 1464 1462 1460 1458 1455 1456 1455 1453 1450 1448 1447 1446 1444 1442 1442 1443
1538 1539 1540 1541 1542 1543 1543 1544 1545 1546 1546 1547 1547 1547 1548 1548 1548 1548 1549 1549 1550 1550 1550 1549 1549 1548 1547 1546 1545 1544 1542 1541 1540 1539 1537 1536 1535 1535 1535 1534 1533 1533 1531 1530 1528 1527 1525 1524 1522 1519 1517 1514 1512 1510 1507 1505 1502 1500 1497 1495 1492 1489 1486 1483 1480 1477 1474 1471 1468 1464 1460 1458 1456 1453 1452 1452 1451 1449 1447 1445 1443 1442 1440 1438 1437
1539 1540 1541 1542 1543 1543 1544 1545 1546 1547 1547 1547 1548 1548 1548 1548 1549 1549 1549 1549 1550 1551 1551 1550 1550 1548 1547 1546 1545 1544 1542 1541 1540 1538 1537 1536 1534 1535 1535 1534 1533 1532 1531 1529 1528 1527 1525 1524 1522 1519 1517 1514 1512 1509 1507 1504 1501 1498 1496 1493 1489 1486 1484 1481 1478 1475 1472 1469 1466 1463 1459 1456 1455 1452 1450 1449 1448 1447 1446 1444 1440 1438 1437 1435 1433
1539 1540 1542 1543 1543 1544 1545 1546 1547 1547 1548 1548 1549 1549 1549 1549 1549 1550 1550 1550 1551 1551 1551 1551 1551 1549 1548 1546 1545 1544 1542 1541 1539 1538 1537 1536 1534 1534 1535 1534 1533 1532 1531 1529 1528 1527 1525 1523 1521 1519 1516 1513 1511 1508 1506 1504 1501 1497 1494 1490 1487 1484 1481 1479 1476 1473 1470 1467 1464 1461 1458 1455 1453 1450 1448 1447 1446 1444 1443 1441 1438 1436 1434 1432 1430
1540 1541 1543 1544 1545 1546 1546 1547 1548 1548 1549 1549 1549 1550 1550 1550 1550 1550 1551 1551 1551 1551 1551 1551 1551 1550 1548 1547 1546 1544 1543 1541 1540 1539 1537 1536 1534 1533 1534 1535 1533 1532 1530 1529 1527 1526 1524 1523 1520 1517 1515 1512 1510 1507 1505 1502 1500 1496 1493 1489 1486 1483 1479 1477 1474 1472 1469 1466 1463 1460 1457 1453 1451 1449 1445 1443 1442 1440 1439 1438 1436 1434 1432 1429 1426
1541 1542 1544 1545 1546 1547 1547 1548 1548 1549 1549 1549 1550 1550 1551 1551 1551 1551 1551 1551 1551 1551 1551 1551 1551 1550 1549 1547 1546 1545 1543 1542 1541 1540 1538 1537 1535 1533 1534 1535 1533 1532 1530 1529 1527 1526 1524 1521 1519 1516 1514 1511 1508 1505 1502 1500 1497 1494 1491 1488 1485 1482 1479 1476 1473 1470 1467 1464 1461 1458 1455 1450 1448 1446 1443 1440 1439 1437 1435 1434 1432 1431 1429 1426 1423
1542 1543 1544 1546 1547 1547 1548 1548 1549 1549 1549 1550 1550 1551 1552 1552 1552 1552 1552 1552 1552 1552 1552 1551 1551 1551 1550 1548 1547 1546 1544 1543 1542 1541 1539 1537 1536 1534 1534 1534 1533 1532 1530 1529 1527 1525 1523 1520 1518 1516 1513 1510 1507 1503 1500 1497 1494 1491 1488 1485 1482 1480 1478 1476 1472 1469 1466 1462 1458 1456 1453 1449 1445 1443 1440 1438 1436 1433 1432 1430 1429 1427 1426 1423 1420
1542 1544 1545 1546 1546 1547 1548 1548 1549 1549 1550 1550 1551 1552 1553 1554 1554 1554 1553 1553 1552 1552 1552 1551 1551 1551 1551 1549 1548 1546 1545 1543 1542 1541 1539 1538 1536 1534 1534 1534 1533 1532 1531 1529 1527 1526 1523 1520 1518 1516 1513 1510 1506 1502 1498 1495 1492 1489 1486 1483 1480 1478 1476 1473 1471 1468 1465 1461 1456 1452 1449 1446 1442 1439 1437 1435 1432 1429 1427 1425 1424 1423 1421 1418 1416
1543 1543 1545 1546 1546 1547 1548 1548 1550 1550 1551 1552 1552 1553 1555 1555 1555 1555 1555 1554 1553 1553 1552 1552 1551 1551 1551 1550 1548 1547 1545 1544 1543 1541 1540 1538 1536 1534 1534 1534 1533 1532 1531 1529 1528 1526 1523 1521 1518 1516 1513 1510 1506 1501 1497 1494 1490 1487 1484 1481 1478 1476 1473 1470 1468 1466 1462 1459 1454 1448 1445 1442 1438 1434 1432 1430 1428 1425 1422 1420 1419 1418 1415 1412 1410
1542 1544 1545 1546 1547 1548 1549 1550 1551 1552 1553 1554 1554 1555 1556 1556 1556 1556 1556 1555 1555 1554 1553 1552 1551 1551 1551 1551 1549 1547 1546 1545 1543 1542 1540 1538 1536 1535 1535 1534 1533 1533 1531 1530 1529 1527 1524 1522 1519 1516 1513 1509 1506 1501 1497 1493 1489 1486 1483 1480 1477 1474 1471 1468 1466 1462 1459 1455 1450 1445 1441 1437 1433 1430 1428 1425 1423 1420 1418 1415 1413 1411 1409 1406 1403
1543 1544 1546 1547 1548 1550 1550 1551 1552 1553 1554 1555 1555 1556 1557 1557 1557 1557 1557 1556 1555 1554 1554 1553 1552 1551 1551 1551 1550 1548 1546 1545 1544 1542 1540 1539 1537 1536 1536 1535 1534 1533 1532 1530 1529 1527 1524 1522 1519 1516 1512 1509 1506 1501 1497 1493 1489 1485 1482 1479 1476 1472 1470 1467 1464 1460 1456 1451 1447 1442 1437 1433 1428 1425 1423 1420 1417 1414 1412 1409 1406 1405 1404 1400 1396
1544 1545 1546 1548 1549 1550 1552 1552 1553 1554 1555 1556 1557 1557 1558 1558 1558 1558 1557 1557 1556 1555 1554 1553 1553 1552 1551 1551 1549 1548 1547 1545 1544 1543 1541 1539 1537 1536 1536 1535 1534 1534 1532 1530 1529 1527 1524 1521 1519 1515 1512 1509 1505 1501 1497 1493 1489 1486 1482 1479 1475 1471 1468 1465 1461 1457 1453 1448 1443 1439 1433 1429 1424 1419 1417 1415 1412 1410 1406 1401 1399 1400 1399 1394 1391
1544 1545 1547 1548 1550 1551 1553 1554 1554 1555 1556 1557 1558 1558 1558 1559 1558 1558 1558 1557 1557 1556 1555 1554 1553 1552 1551 1550 1549 1548 1547 1546 1545 1543 1541 1540 1537 1536 1536 1535 1534 1534 1533 1531 1529 1527 1524 1521 1519 1515 1512 1509 1505 1501 1498 1494 1490 1486 1483 1479 1475 1471 1467 1462 1457 1453 1449 1444 1440 1435 1430 1425 1420 1415 1412 1409 1406 1405 1401 1396 1395 1395 1392 1388 1386
1544 1546 1547 1549 1550 1552 1553 1554 1555 1556 1557 1557 1558 1559 1559 1559 1559 1559 1559 1558 1558 1557 1556 1555 1554 1553 1552 1551 1549 1549 1547 1546 1545 1544 1542 1540 1538 1536 1536 1534 1533 1533 1532 1531 1529 1527 1525 1522 1518 1515 1512 1509 1506 1502 1499 1496 1492 1488 1484 1480 1476 1471 1467 1462 1456 1451 1446 1441 1437 1432 1426 1421 1416 1411 1408 1404 1401 1399 1395 1392 1390 1388 1384 1382 1382
1544 1546 1548 1549 1551 1552 1553 1554 1555 1556 1557 1558 1558 1559 1559 1559 1559 1559 1559 1559 1558 1557 1557 1556 1555 1554 1553 1552 1551 1550 1548 1547 1546 1544 1542 1541 1538 1537 1536 1534 1533 1531 1531 1531 1529 1527 1525 1522 1519 1515 1512 1509 1506 1502 1500 1497 1493 1490 1486 1482 1477 1472 1467 1462 1458 1453 1447 1441 1435 1430 1424 1419 1414 1409 1404 1399 1396 1393 1390 1387 1385 1383 1379 1378 1377
1544 1546 1548 1549 1551 1552 1553 1554 1555 1556 1557 1558 1558 1559 1559 1559 1559 1559 1559 1558 1558 1557 1557 1557 1556 1555 1554 1553 1552 1551 1550 1548 1547 1545 1543 1541 1539 1537 1536 1534 1533 1531 1530 1530 1529 1527 1525 1522 1519 1515 1512 1509 1506 1503 1500 1498 1494 1491 1488 1483 1479 1474 1468 1463 1459 1454 1448 1441 1435 1429 1423 1417 1411 1405 1401 1396 1392 1389 1385 1382 1380 1378 1376 1373 1372
1544 1546 1548 1550 1551 1552 1553 1554 1555 1557 1558 1558 1559 1559 1559 1559 1560 1559 1559 1558 1558 1557 1557 1557 1557 1556 1556 1555 1554 1552 1550 1549 1548 1546 1544 1542 1540 1538 1536 1535 1533 1531 1529 1529 1529 1527 1525 1522 1519 1516 1512 1510 1507 1504 1501 1498 1495 1492 1489 1484 1479 1474 1469 1464 1459 1453 1448 1442 1435 1429 1422 1416 1409 1403 1398 1393 1388 1385 1381 1378 1375 1373 1372 1370 1368
1545 1546 1548 1549 1551 1552 1553 1554 1555 1557 1558 1558 1559 1559 1559 1560 1560 1559 1559 1559 1559 1558 1558 1558 1558 1558 1557 1557 1556 1554 1552 1550 1549 1547 1545 1543 1540 1539 1537 1535 1533 1530 1529 1529 1528 1526 1524 1522 1519 1516 1512 1510 1507 1504 1502 1499 1496 1493 1489 1483 1478 1473 1469 1464 1459 1454 1448 1442 1436 1429 1423 1417 1410 1403 1397 1391 1386 1383 1380 1376 1372 1370 1368 1367 1365
1545 1546 1548 1549 1550 1552 1553 1555 1556 1557 1558 1559 1559 1559 1560 1560 1560 1559 1559 1560 1559 1559 1559 1559 1559 1558 1558 1557 1557 1555 1554 1552 1550 1548 1545 1543 1541 1539 1537 1535 1533 1531 1529 1528 1527 1526 1524 1522 1519 1516 1512 1510 1508 1505 1503 1500 1496 1493 1489 1484 1479 1474 1470 1465 1460 1454 1449 1443 1437 1431 1425 1420 1413 1405 1398 1393 1387 1383 1379 1376 1372 1369 1367 1365 1363
1544 1546 1547 1549 1551 1553 1554 1555 1556 1557 1558 1559 1559 1560 1560 1560 1560 1560 1560 1560 1560 1560 1560 1560 1559 1559 1558 1558 1557 1556 1554 1552 1550 1548 1546 1543 1541 1539 1538 1536 1534 1531 1530 1529 1527 1525 1523 1521 1519 1516 1513 1511 1509 1506 1504 1500 1497 1493 1489 1485 1480 1476 1471 1466 1461 1456 1451 1445 1439 1434 1428 1422 1415 1408 1402 1396 1389 1384 1379 1375 1372 1368 1366 1364 1363
1544 1546 1548 1550 1551 1553 1555 1556 1556 1557 1558 1559 1559 1559 1560 1560 1560 1560 1560 1560 1560 1560 1560 1560 1559 1559 1558 1558 1557 1556 1554 1553 1551 1548 1546 1544 1542 1540 1538 1536 1534 1532 1530 1529 1527 1525 1522 1520 1519 1517 1514 1512 1509 1507 1504 1501 1498 1494 1490 1486 1482 1478 1474 1469 1463 1458 1454 1448 1443 1437 1431 1425 1419 1412 1404 1398 1391 1385 1380 1376 1372 1369 1367 1365 1363
1544 1546 1548 1550 1552 1553 1554 1555 1556 1557 1558 1559 1559 1559 1560 1560 1560 1560 1560 1560 1560 1560 1560 1560 1559 1559 1558 1557 1557 1556 1555 1553 1551 1548 1546 1544 1542 1540 1538 1536 1534 1532 1531 1529 1527 1524 1521 1521 1520 1518 1515 1513 1510 1507 1505 1502 1498 1495 1492 1488 1484 1481 1476 1472 1467 1463 1457 1452 1446 1440 1434 1428 1421 1414 1406 1400 1394 1389 1384 1380 1376 1373 1370 1367 1365
1544 1546 1548 1550 1552 1553 1554 1554 1556 1557 1558 1558 1559 1559 1560 1560 1559 1559 1559 1559 1559 1560 1560 1559 1559 1559 1558 1557 1557 1556 1555 1553 1550 1548 1546 1544 1542 1540 1538 1537 1535 1533 1531 1529 1527 1524 1522 1522 1521 1518 1516 1513 1510 1508 1506 1503 1499 1496 1493 1489 1486 1482 1478 1474 1470 1465 1460 1454 1448 1443 1436 1430 1424 1418 1411 1404 1398 1393 1389 1385 1381 1378 1375 1371 1367
1544 1546 1548 1550 1551 1552 1553 1554 1555 1556 1557 1558 1558 1558 1558 1559 1559 1558 1557 1557 1557 1558 1558 1558 1558 1557 1557 1557 1556 1555 1554 1552 1550 1549 1546 1544 1542 1540 1539 1537 1536 1534 1532 1530 1527 1525 1524 1524 1522 1519 1516 1514 1511 1509 1506 1503 1500 1497 1494 1491 1487 1483 1479 1475 1471 1467 1462 1456 1451 1445 1439 1433 1428 1422 1415 1409 1403 1399 1394 1390 1386 1383 1380 1375 1372
1544 1546 1548 1549 1550 1551 1552 1554 1555 1555 1556 1556 1557 1557 1558 1558 1558 1557 1557 1557 1557 1557 1557 1557 1556 1556 1556 1556 1555 1554 1553 1552 1550 1549 1547 1545 1543 1542 1540 1539 1537 1534 1533 1530 1528 1526 1526 1525 1523 1520 1518 1515 1512 1510 1507 1504 1501 1498 1495 1492 1489 1485 1481 1477 1473 1469 1465 1460 1454 1449 1444 1438 1432 1426 1420 1414 1410 1405 1400 1396 1392 1389 1385 1381 1378
1544 1545 1547 1548 1549 1550 1552 1553 1554 1555 1556 1556 1557 1557 1557 1558 1558 1558 1558 1557 1557 1557 1557 1556 1556 1556 1555 1555 1554 1553 1552 1551 1550 1549 1547 1546 1544 1542 1541 1539 1537 1535 1533 1531 1529 1528 1528 1526 1524 1522 1519 1517 1514 1511 1508 1506 1503 1499 1496 1494 1490 1486 1483 1479 1475 1471 1467 1462 1457 1452 1447 1442 1437 1431 1426 1421 1416 1411 1406 1401 1397 1394 1390 1387 1383
1543 1544 1546 1547 1548 1550 1551 1552 1553 1554 1555 1556 1557 1557 1557 1557 1557 1558 1558 1558 1557 1557 1557 1556 1556 1555 1555 1554 1553 1553 1552 1551 1550 1549 1547 1546 1545 1543 1541 1539 1537 1536 1534 1532 1531 1530 1529 1527 1525 1523 1520 1518 1515 1513 1510 1507 1505 1501 1498 1495 1491 1488 1485 1481 1477 1473 1469 1465 1461 1456 1451 1446 1442 1437 1432 1426 1421 1416 1411 1406 1402 1399 1396 1392 1388
1542 1544 1545 1546 1547 1549 1550 1551 1552 1554 1555 1556 1557 1557 1558 1558 1557 1557 1557 1557 1557 1557 1557 1556 1556 1555 1555 1554 1553 1552 1552 1551 1550 1548 1547 1546 1544 1543 1541 1539 1538 1537 1535 1533 1533 1532 1530 1528 1526 1524 1522 1519 1517 1514 1511 1509 1506 1503 1500 1497 1494 1490 1487 1483 1480 1476 1472 1469 1465 1460 1455 1451 1446 1441 1437 1431 1426 1422 1417 1413 1409 1405 1402 1398 1395
1541 1543 1544 1545 1546 1548 1549 1550 1552 1553 1554 1555 1556 1557 1557 1558 1557 1557 1557 1556 1556 1556 1556 1556 1556 1555 1555 1554 1553 1552 1552 1551 1550 1548 1547 1546 1544 1543 1541 1540 1539 1538 1536 1535 1534 1533 1531 1529 1527 1525 1523 1521 1518 1516 1513 1510 1508 1505 1502 1499 1496 1493 1489 1485 1482 1478 1475 1472 1468 1464 1460 1456 1451 1446 1442 1438 1433 1429 1425 1421 1417 1412 1408 1406 1403
1541 1542 1542 1544 1546 1547 1548 1550 1551 1552 1553 1554 1555 1556 1556 1557 1557 1557 1557 1557 1556 1556 1555 1555 1555 1555 1555 1554 1553 1552 1552 1550 1550 1548 1547 1546 1544 1543 1541 1540 1540 1539 1538 1537 1535 1534 1532 1530 1528 1526 1524 1522 1519 1517 1514 1512 1509 1507 1503 1501 1498 1494 1491 1487 1483 1480 1477 1474 1471 1467 1464 1461 1457 1453 1449 1445 1441 1436 1432 1428 1424 1420 1417 1414 1411
1540 1541 1542 1543 1545 1546 1548 1549 1550 1552 1553 1554 1554 1555 1556 1556 1556 1557 1557 1557 1557 1557 1556 1555 1554 1554 1554 1554 1553 1552 1551 1550 1549 1548 1547 1546 1545 1543 1541 1541 1541 1541 1539 1538 1536 1534 1533 1531 1529 1527 1525 1523 1520 1518 1516 1513 1511 1508 1505 1502 1500 1496 1493 1489 1486 1482 1479 1477 1474 1470 1467 1464 1461 1458 1454 1451 1447 1443 1439 1435 1432 1428 1424 1422 1419
1539 1540 1541 1542 1544 1545 1547 1548 1549 1550 1551 1552 1553 1554 1554 1555 1555 1556 1556 1556 1556 1556 1556 1556 1554 1553 1553 1552 1552 1552 1551 1550 1549 1548 1547 1546 1545 1543 1542 1542 1543 1541 1540 1538 1537 1535 1533 1532 1530 1528 1526 1524 1521 1519 1517 1514 1512 1509 1506 1504 1501 1498 1495 1492 1489 1484 1481 1479 1476 1472 1470 1468 1465 1462 1459 1456 1452 1449 1446 1442 1438 1435 1432 1429 1426
1538 1539 1539 1541 1543 1545 1546 1547 1548 1549 1550 1551 1552 1553 1554 1554 1554 1555 1555 1555 1555 1555 1555 1555 1555 1554 1553 1551 1551 1550 1550 1549 1548 1548 1547 1546 1545 1544 1544 1544 1543 1542 1540 1539 1537 1535 1534 1532 1530 1529 1527 1524 1522 1520 1518 1515 1513 1510 1507 1505 1502 1499 1496 1494 1491 1487 1484 1481 1478 1475 1472 1470 1468 1465 1463 1460 1457 1454 1451 1448 1445 1442 1439 1435 1433
1537 1537 1538 1540 1542 1544 1545 1546 1547 1548 1549 1550 1551 1552 1552 1553 1553 1553 1554 1554 1554 1554 1554 1554 1554 1554 1553 1552 1551 1551 1550 1550 1549 1549 1548 1547 1546 1545 1545 1544 1543 1542 1540 1539 1537 1536 1534 1533 1531 1529 1527 1525 1522 1520 1518 1516 1513 1511 1508 1506 1503 1500 1497 1495 1492 1489 1486 1484 1482 1479 1475 1473 1471 1468 1466 1464 1461 1459 1456 1454 1451 1448 1445 1443 1440
1536 1536 1537 1539 1541 1543 1544 1545 1546 1547 1548 1549 1550 1551 1551 1551 1552 1552 1553 1553 1553 1553 1553 1553 1553 1553 1552 1552 1551 1550 1550 1550 1549 1549 1548 1547 1546 1545 1544 1544 1543 1541 1540 1539 1538 1536 1534 1533 1531 1529 1527 1525 1523 1521 1519 1517 1514 1512 1510 1507 1504 1501 1499 1496 1494 1491 1488 1486 1485 1482 1479 1476 1474 1472 1469 1467 1465 1463 1461 1458 1456 1454 1452 1450 1447
1535 1535 1536 1538 1540 1542 1543 1544 1545 1546 1547 1548 1549 1550 1550 1550 1551 1551 1551 1551 1551 1551 1551 1551 1552 1551 1550 1550 1550 1549 1549 1548 1548 1548 1547 1546 1545 1545 1544 1543 1542 1541 1540 1539 1537 1536 1534 1532 1531 1529 1527 1525 1523 1521 1520 1518 1515 1513 1511 1508 1506 1503 1500 1498 1495 1493 1490 1488 1486 1484 1482 1480 1478 1476 1473 1471 1469 1467 1464 1462 1461 1459 1457 1455 1453
1534 1534 1535 1537 1539 1540 1542 1543 1544 1545 1546 1547 1548 1548 1549 1549 1549 1550 1550 1550 1550 1550 1550 1550 1550 1550 1549 1548 1548 1548 1547 1547 1546 1546 1546 1545 1545 1544 1543 1542 1541 1540 1539 1538 1537 1535 1534 1532 1530 1529 1527 1525 1524 1522 1520 1518 1516 1514 1512 1510 1507 1504 1502 1499 1497 1494 1492 1490 1488 1486 1485 1483 1481 1479 1477 1475 1473 1471 1469 1467 1465 1463 1462 1460 1459
1533 1533 1534 1536 1537 1539 1540 1542 1543 1544 1545 1545 1546 1547 1547 1548 1548 1548 1548 1548 1548 1548 1549 1549 1549 1549 1547 1546 1547 1547 1546 1545 1545 1545 1545 1544 1544 1543 1542 1541 1541 1540 1538 1537 1536 1535 1533 1531 1530 1528 1527 1525 1524 1522 1521 1519 1517 1515 1513 1511 1508 1506 1503 1501 1498 1496 1493 1491 1489 1487 1486 1485 1483 1482 1480 1478 1477 1475 1474 1472 1470 1468 1467 1465 1464
1532 1533 1534 1535 1536 1538 1539 1540 1542 1543 1543 1544 1545 1545 1546 1546 1546 1547 1547 1547 1547 1547 1547 1547 1547 1547 1546 1545 1545 1545 1544 1544 1544 1544 1544 1543 1542 1541 1541 1540 1539 1538 1537 1536 1535 1534 1532 1531 1529 1528 1526 1525 1524 1522 1521 1520 1518 1516 1514 1512 1510 1507 1505 1502 1500 1497 1495 1493 1491 1489 1487 1486 1484 1483 1481 1480 1479 1478 1476 1475 1473 1472 1470 1469 1468
1530 1532 1533 1534 1535 1537 1538 1539 1540 1541 1542 1542 1543 1543 1544 1544 1545 1545 1545 1545 1545 1545 1545 1546 1546 1546 1545 1545 1544 1543 1543 1543 1543 1543 1542 1541 1541 1540 1539 1539 1538 1537 1536 1535 1534 1532 1531 1530 1528 1527 1526 1524 1523 1522 1520 1520 1519 1517 1515 1513 1511 1508 1506 1504 1501 1499 1497 1495 1492 1491 1489 1487 1486 1484 1483 1481 1480 1479 1478 1477 1476 1474 1473 1472 1471
1529 1530 1532 1533 1534 1535 1536 1537 1538 1539 1540 1541 1541 1542 1542 1543 1543 1543 1543 1544 1544 1544 1544 1544 1544 1544 1544 1543 1543 1543 1542 1542 1542 1541 1540 1540 1539 1538 1538 1537 1536 1535 1534 1533 1532 1531 1530 1528 1527 1526 1525 1524 1522 1521 1520 1519 1518 1517 1516 1514 1511 1509 1507 1505 1503 1501 1499 1497 1494 1492 1491 1489 1487 1486 1484 1483 1481 1480 1479 1478 1478 1477 1476 1475 1474
1528 1529 1530 1531 1533 1534 1535 1536 1537 1537 1538 1539 1539 1540 1540 1541 1541 1541 1541 1542 1542 1542 1542 1542 1542 1542 1542 1542 1541 1541 1541 1540 1540 1539 1539 1538 1537 1537 1536 1535 1534 1533 1532 1531 1530 1529 1528 1527 1526 1525 1524 1523 1522 1521 1519 1518 1518 1517 1516 1514 1512 1509 1508 1506 1504 1502 1500 1498 1496 1494 1492 1491 1489 1487 1486 1484 1483 1482 1481 1480 1479 1479 1478 1477 1476
1526 1527 1529 1530 1531 1532 1533 1534 1535 1536 1536 1537 1537 1538 1538 1539 1539 1539 1539 1540 1540 1540 1540 1540 1540 1540 1540 1540 1539 1539 1539 1538 1538 1537 1537 1536 1535 1535 1534 1533 1532 1531 1530 1529 1528 1527 1527 1525 1524 1523 1522 1522 1520 1519 1518 1517 1516 1516 1515 1514 1512 1509 1508 1507 1505 1503 1501 1499 1497 1495 1494 1492 1490 1489 1487 1486 1484 1483 1482 1481 1480 1480 1480 1479 1478
1525 1526 1527 1528 1529 1530 1531 1532 1533 1534 1534 1535 1535 1536 1536 1537 1537 1537 1537 1538 1538 1538 1538 1538 1538 1538 1538 1537 1537 1537 1537 1536 1536 1536 1535 1534 1534 1533 1532 1531 1530 1529 1528 1527 1526 1525 1524 1523 1522 1521 1521 1520 1519 1518 1517 1516 1515 1514 1514 1512 1510 1509 1508 1506 1504 1503 1502 1500 1498 1497 1495 1493 1492 1490 1488 1487 1486 1484 1483 1482 1481 1480 1480 1480 1479
1523 1524 1525 1527 1527 1528 1529 1530 1531 1532 1532 1533 1533 1533 1534 1534 1535 1535 1535 1535 1536 1536 1536 1536 1536 1536 1535 1535 1535 1535 1534 1534 1534 1533 1533 1533 1532 1531 1531 1530 1529 1527 1526 1525 1524 1523 1522 1521 1520 1519 1518 1518 1517 1516 1515 1515 1514 1513 1512 1511 1509 1508 1507 1505 1504 1503 1501 1500 1498 1497 1495 1494 1493 1491 1489 1488 1487 1485 1484 1483 1482 1481 1481 1481 1480
1521 1522 1523 1525 1525 1526 1527 1528 1529 1529 1530 1530 1531 1531 1532 1532 1532 1532 1533 1533 1533 1533 1533 1533 1533 1533 1533 1533 1532 1532 1532 1532 1531 1531 1531 1530 1530 1529 1529 1529 1528 1526 1524 1523 1521 1521 1520 1519 1518 1517 1516 1515 1515 1514 1513 1512 1511 1511 1510 1509 1508 1507 1506 1504 1503 1502 1501 1499 1498 1497 1495 1494 1493 1492 1490 1489 1487 1486 1485 1484 1483 1482 1482 1482 1481
Wind_Speed
9 9 9 9 9 10 10 10 10 10 10 9 9 9 8 8 10 10 12 13 13 12 12 12 11 11 11 12 12 12 13 12 12 14 14 14 14 14 14 14 13 14 14 15 15 15 15 16 16 16 16 16 17 17 17 17 17 17 18 19 19 19 20 21 25 29 31 30 31 34 34 33 33 32 29 29 30 31 31 31 31 31 30 30 30
9 9 9 10 10 10 10 10 10 10 10 10 10 11 10 11 14 14 14 14 13 12 12 12 12 12 12 13 12 13 14 14 14 16 15 15 16 16 16 16 15 15 15 15 15 15 16 16 16 17 18 17 17 17 17 18 18 19 19 19 20 20 20 22 24 27 31 33 32 34 35 33 32 31 29 28 28 29 32 34 32 31 32 32 31
10 9 10 10 10 10 10 10 10 10 11 12 14 15 15 14 14 14 13 13 12 12 12 12 12 13 13 14 14 15 15 16 16 17 17 17 18 18 17 16 15 15 15 15 15 16 16 16 17 17 18 18 18 18 18 19 20 20 20 20 21 22 21 22 24 26 30 33 33 34 35 34 34 35 34 33 30 29 32 35 35 33 31 30 31
11 10 11 11 11 11 11 10 11 12 14 15 16 17 16 14 13 13 13 12 12 13 13 13 13 13 14 14 15 16 17 17 18 18 18 17 17 17 17 16 15 14 14 15 15 16 16 16 16 16 17 17 18 19 19 21 22 22 22 22 22 23 24 23 23 26 29 33 35 34 35 37 37 35 34 35 33 30 29 32 34 36 34 30 29
12 11 11 11 11 11 11 12 14 16 16 16 16 16 15 14 13 13 12 12 12 12 12 12 12 13 14 15 17 17 18 19 19 19 18 17 16 16 16 16 15 14 14 15 15 16 16 16 16 16 17 18 19 20 21 22 23 23 24 23 23 25 25 25 25 27 28 31 34 36 35 35 35 34 31 31 32 31 28 27 29 35 37 34 32
12 11 12 12 12 12 12 14 17 18 16 16 15 15 14 13 13 13 12 12 13 12 12 13 12 13 15 16 17 18 19 19 20 20 19 18 17 15 15 14 14 14 14 14 15 15 16 16 16 17 18 18 19 21 22 22 24 26 25 25 26 26 27 28 28 28 28 30 32 34 34 32 32 32 29 27 29 30 30 29 28 31 35 36 36
12 12 12 13 14 13 14 15 17 16 15 15 15 14 14 13 13 13 13 13 12 12 13 14 13 13 15 17 18 18 19 20 20 20 21 20 17 13 13 13 13 13 13 14 15 16 16 16 16 17 18 19 20 22 22 24 28 30 30 29 30 29 29 30 29 28 29 29 29 31 32 31 30 31 31 28 28 28 28 29 28 28 30 33 35
13 13 14 15 15 16 16 17 16 15 15 15 14 14 15 15 14 13 14 14 13 11 11 12 13 13 15 17 18 19 19 20 21 21 21 20 16 12 12 13 13 13 13 14 15 16 16 16 16 17 17 18 21 23 24 27 32 34 33 33 32 31 29 29 28 28 27 28 28 29 30 30 29 30 30 28 27 26 25 26 29 29 28 29 31
14 15 16 16 17 17 17 17 16 16 15 14 14 15 15 15 15 14 14 14 13 12 11 11 11 12 14 16 18 19 20 21 22 22 22 21 18 13 11 13 13 13 14 14 15 16 17 16 16 17 17 20 23 24 27 32 34 35 35 34 33 31 29 28 29 30 29 28 29 29 30 31 30 30 30 29 28 28 28 29 31 33 32 31 31
16 16 17 17 17 17 16 16 16 16 15 15 14 15 15 15 15 15 14 15 15 14 12 12 11 11 13 16 17 18 19 20 21 20 21 21 19 15 12 12 13 13 14 15 15 16 17 17 17 17 19 23 23 25 32 35 35 35 34 32 30 28 28 29 30 30 29 29 30 30 31 32 31 31 31 31 30 31 30 30 31 31 32 32 32
17 17 17 16 16 15 15 15 15 15 15 15 14 15 15 16 16 16 16 16 16 15 13 12 12 12 13 15 16 17 18 19 18 19 20 19 19 17 13 12 12 13 15 15 15 17 17 18 18 18 21 24 23 28 36 38 37 36 34 32 29 26 25 28 30 30 29 29 30 29 31 33 34 34 33 32 31 30 30 30 30 30 30 31 32
18 17 17 16 15 15 15 15 15 15 16 16 16 16 16 16 16 16 16 16 16 15 13 13 12 11 12 14 16 16 16 17 17 18 19 18 17 17 13 11 12 13 15 16 16 17 18 19 20 20 22 23 24 32 39 39 38 36 34 33 32 27 25 26 27 28 28 30 31 31 32 33 35 35 34 34 33 32 31 30 30 30 30 31 33
18 18 17 16 16 16 16 16 17 17 17 17 18 17 17 16 16 16 16 16 16 15 14 12 12 10 9 12 15 15 16 17 16 17 18 17 18 18 13 11 12 13 15 16 17 17 18 19 21 22 23 23 25 34 39 39 38 36 33 33 33 31 29 26 23 24 26 29 31 33 33 34 35 36 36 36 37 37 36 34 32 32 32 34 34
19 18 18 18 18 17 17 18 18 17 17 17 17 17 16 15 14 14 14 15 14 14 14 13 12 11 9 10 14 15 16 16 16 17 17 18 19 19 13 12 13 13 14 16 17 17 18 19 21 24 23 22 27 34 37 37 38 36 34 33 34 35 34 28 24 25 27 28 29 32 35 35 36 37 37 38 38 38 38 37 34 33 34 36 37
19 19 19 18 18 17 17 17 17 16 17 17 18 17 15 13 13 12 12 12 12 13 14 13 13 12 9 8 12 16 16 16 16 17 18 18 19 18 13 12 13 13 14 16 16 17 18 18 21 24 23 23 28 33 35 37 38 35 34 35 36 37 36 31 28 29 30 30 29 31 33 34 35 36 36 36 37 38 39 40 40 39 40 42 44
19 19 18 17 16 16 16 16 16 16 16 17 17 16 14 12 11 12 12 12 13 13 14 14 13 13 11 8 10 15 17 16 17 18 18 19 19 17 13 12 13 13 13 15 15 16 19 21 24 27 26 25 28 32 35 38 37 34 35 38 39 39 37 34 31 30 31 32 31 31 32 33 33 34 32 31 34 36 37 40 42 42 42 44 47
19 18 18 17 17 16 16 16 16 16 15 15 15 14 12 11 11 11 11 11 12 12 13 14 14 15 14 11 11 15 17 17 18 18 19 19 20 18 14 11 12 13 13 14 15 17 21 24 27 29 27 26 28 32 36 39 38 35 36 38 40 40 39 37 33 31 33 35 35 34 32 31 30 31 27 26 28 30 32 36 38 37 38 40 44
19 18 18 18 17 16 16 16 16 15 14 14 13 12 11 11 11 11 11 11 11 10 11 12 14 15 16 15 15 16 18 18 19 19 19 19 20 20 17 12 11 12 14 14 15 16 20 23 26 27 25 24 28 33 37 39 39 36 35 37 40 40 40 39 37 37 37 38 38 37 34 31 27 26 23 22 23 24 27 32 32 32 36 40 43
19 19 18 18 17 17 16 16 15 15 14 13 12 11 10 10 10 9 9 10 10 9 10 11 12 13 15 17 18 19 19 19 19 19 19 20 20 21 20 16 12 11 14 15 14 15 17 19 23 26 25 24 28 32 35 39 39 35 32 35 39 40 39 39 39 40 40 41 40 40 38 34 29 24 20 18 20 21 23 25 25 27 33 38 40
20 20 19 18 18 17 16 16 16 15 14 13 11 11 11 10 10 10 9 9 9 9 10 10 12 13 13 14 17 20 20 20 19 19 18 19 21 21 21 20 16 12 13 15 15 16 17 18 22 27 28 27 30 32 34 37 38 36 34 34 37 39 39 39 39 39 41 42 42 42 41 37 33 27 21 19 20 21 19 17 20 25 28 30 33
20 20 19 18 18 17 17 17 17 15 14 12 11 11 10 10 10 10 10 10 11 10 9 9 10 11 11 11 14 18 20 19 19 19 18 19 21 21 21 21 19 14 12 14 15 15 17 19 23 28 29 28 29 30 31 34 37 37 37 34 34 37 40 40 40 39 42 44 45 45 45 42 38 33 26 24 23 21 17 12 10 17 21 23 25
21 20 19 19 18 17 18 19 17 14 12 11 11 10 10 9 9 9 9 10 11 11 9 9 8 8 9 9 11 15 17 18 19 18 17 19 20 21 21 21 21 17 12 13 15 15 17 20 23 27 29 28 28 27 29 32 34 37 37 34 34 37 39 41 42 41 42 46 47 47 48 47 43 38 32 28 26 21 16 14 11 7 12 16 19
21 20 19 19 18 19 20 19 15 12 10 10 10 9 9 8 8 8 8 8 9 9 9 9 8 7 8 8 9 11 13 15 18 17 17 18 20 20 21 21 23 21 15 13 14 14 17 21 24 26 27 28 28 26 27 30 31 33 37 36 35 36 36 38 42 41 41 48 50 49 49 48 45 41 37 34 29 23 18 15 12 10 7 8 11
21 20 19 19 19 19 19 16 13 11 10 9 9 8 8 8 7 8 8 7 7 8 8 8 7 7 7 7 8 10 10 12 15 17 18 19 19 21 22 22 23 22 17 14 13 14 17 22 26 27 24 25 27 25 25 29 29 31 36 35 33 35 35 36 40 40 41 47 50 50 49 47 45 42 40 37 31 24 19 15 11 11 11 7 6
21 20 20 19 18 17 15 13 11 10 10 9 8 7 7 7 6 7 7 7 7 7 7 7 7 7 7 7 7 9 10 12 14 17 19 19 19 20 21 21 22 22 19 15 13 14 17 21 25 25 22 23 26 25 25 29 29 32 36 33 32 37 37 35 37 40 43 47 49 49 49 48 47 44 39 37 34 27 21 17 13 13 14 13 9
21 21 19 18 17 15 14 12 11 10 10 8 7 7 7 6 6 5 5 6 6 6 6 7 7 7 7 7 7 8 10 13 15 17 18 19 19 20 20 20 21 20 18 16 14 15 20 22 23 22 21 21 24 24 25 28 29 30 33 32 32 36 36 34 34 37 41 46 48 49 48 47 48 46 41 38 37 33 27 23 19 18 19 20 19
21 20 19 18 16 15 14 13 12 11 10 8 7 7 6 5 5 5 5 4 5 5 5 5 6 7 7 7 7 7 9 12 16 17 18 19 20 20 20 20 21 20 19 19 18 18 21 21 21 22 21 21 23 24 24 27 28 28 30 31 31 33 35 35 34 33 37 44 49 49 47 46 47 48 46 42 40 37 33 29 26 25 24 23 24
21 20 19 17 16 14 14 14 12 10 9 9 7 7 6 5 5 5 5 5 5 4 5 4 5 6 7 7 7 7 8 12 16 17 19 20 20 21 20 20 20 20 20 21 22 22 20 19 20 21 21 21 22 24 25 26 27 28 30 31 31 32 35 35 33 34 40 46 48 49 49 48 47 49 49 46 43 40 37 33 30 28 26 26 27
20 19 18 16 15 15 14 13 11 10 10 9 8 9 9 7 5 4 5 7 8 6 5 5 5 5 5 6 7 7 8 12 15 16 18 19 19 19 19 19 19 20 21 21 22 22 20 19 19 21 22 21 22 23 25 27 28 27 29 31 31 32 35 34 33 36 42 44 45 47 49 50 49 50 50 48 45 42 40 38 35 32 29 28 28
20 19 17 16 16 15 14 12 11 11 10 9 9 10 11 9 6 5 6 7 7 7 6 5 6 7 5 4 6 8 9 11 14 15 16 17 16 16 17 18 19 21 21 22 21 20 19 19 19 20 21 21 22 23 25 27 28 27 29 31 32 33 34 34 33 35 38 41 42 44 47 49 50 50 49 48 47 43 41 41 40 36 33 31 29
19 18 17 16 16 15 13 12 12 12 11 10 10 9 8 7 7 8 8 8 7 7 7 6 5 6 5 4 6 8 9 10 12 13 15 16 15 15 17 20 21 22 21 22 21 19 18 18 19 20 20 21 21 22 24 25 26 27 28 30 31 32 33 34 34 34 35 39 41 42 44 47 49 50 49 47 46 45 43 42 42 41 38 36 33
19 17 16 17 17 14 13 13 12 11 11 10 9 9 6 3 3 6 8 9 8 8 8 7 6 5 5 6 7 8 9 9 10 12 13 13 13 15 18 21 22 22 21 20 19 17 17 18 18 19 20 21 21 22 23 23 24 26 27 28 30 30 31 32 33 33 34 37 39 40 42 44 46 48 49 48 46 46 46 44 44 43 43 41 37
18 17 16 17 17 14 13 13 12 11 11 9 8 9 8 5 2 2 4 7 7 7 7 8 8 7 6 6 7 7 7 8 9 11 12 12 13 16 19 19 20 21 21 18 16 15 16 17 18 18 19 20 21 21 22 22 23 24 25 26 27 28 29 30 32 32 33 35 37 38 39 41 43 45 48 49 48 46 46 45 44 43 44 44 43
17 16 16 17 16 13 13 13 12 10 10 9 8 7 7 6 4 3 4 5 6 7 7 7 7 8 9 8 7 7 7 8 9 10 11 12 13 15 18 18 18 18 18 17 15 14 15 17 17 18 19 19 20 21 21 22 22 23 24 24 25 27 28 29 31 32 32 32 34 36 37 38 40 41 43 46 47 46 45 44 43 43 42 43 44
16 16 17 17 15 13 12 12 11 10 10 9 8 7 6 6 5 4 3 2 3 5 6 8 8 8 10 10 9 8 8 8 9 10 11 12 13 15 16 16 15 15 14 14 14 14 14 16 17 17 18 19 19 20 21 21 21 22 23 24 25 26 28 29 31 32 31 30 32 34 35 35 37 37 38 40 43 45 45 42 41 41 40 40 40
15 16 17 17 14 13 13 12 11 10 10 8 8 7 6 6 5 4 4 3 3 3 4 6 9 10 11 11 11 10 8 8 10 11 11 13 14 15 14 13 13 13 12 13 14 14 13 14 16 16 17 18 19 19 20 21 20 21 22 23 23 25 27 28 29 30 30 30 31 32 32 34 35 35 36 36 38 41 43 41 39 39 39 38 37
15 16 18 17 14 13 13 12 11 11 10 9 8 7 6 6 5 5 5 4 4 3 3 4 6 10 11 11 11 11 9 10 12 13 13 14 15 14 13 11 11 12 12 12 13 14 13 13 15 16 16 17 18 18 19 20 20 21 22 22 22 24 25 26 28 29 28 29 31 31 31 32 32 33 34 34 34 36 39 40 39 38 37 37 37
15 16 18 17 13 13 13 12 12 13 11 8 7 7 6 6 5 5 6 6 5 5 4 4 5 6 8 8 11 13 13 12 13 13 13 13 13 11 10 9 9 10 11 11 12 13 13 13 14 15 15 16 17 18 18 19 20 21 22 22 23 24 24 25 27 28 27 27 30 30 30 30 31 31 31 32 33 33 35 37 37 36 36 36 35
15 16 19 18 14 13 13 12 11 12 12 9 7 7 7 6 6 6 7 7 7 6 5 5 5 5 5 4 6 9 10 9 9 9 8 9 9 8 8 8 8 9 10 10 11 11 12 12 12 13 14 15 16 17 17 18 20 20 21 22 23 25 25 25 26 27 26 25 27 28 29 29 29 29 30 31 31 31 31 32 33 34 33 33 32
16 16 19 19 15 12 13 12 10 11 11 10 9 8 8 7 7 7 7 8 8 7 7 7 6 6 5 6 7 8 8 8 7 7 7 8 8 7 7 7 8 8 9 9 10 10 11 11 11 12 13 14 15 16 17 18 19 20 21 22 23 24 25 25 25 26 25 23 24 26 27 27 27 27 29 29 29 30 30 29 29 30 30 31 31
16 16 19 20 16 13 12 12 11 11 11 10 9 8 8 8 8 7 8 8 8 8 8 8 7 7 9 11 12 12 11 9 8 8 8 8 8 7 7 7 8 8 8 8 9 9 10 11 11 11 12 14 14 15 16 18 19 19 20 22 24 24 24 24 24 25 25 23 23 25 26 25 25 25 26 27 27 28 28 27 27 27 28 28 29
16 15 18 20 18 14 12 11 11 11 11 10 9 9 8 8 8 8 9 9 9 8 8 8 7 9 12 15 14 13 12 10 9 8 8 8 8 8 8 8 8 8 8 8 8 8 10 11 11 11 12 13 13 14 15 17 18 18 19 22 23 24 24 24 23 24 24 23 23 24 24 24 23 22 22 23 24 25 26 26 25 25 25 25 26
16 14 15 18 18 15 12 11 11 11 11 11 10 10 9 9 8 8 9 10 10 9 9 9 8 9 12 14 15 13 12 10 9 8 9 9 9 9 9 8 8 8 8 8 8 8 10 11 11 11 11 11 12 12 13 14 16 17 18 20 22 24 24 23 23 23 23 23 23 23 23 22 22 21 20 20 21 21 22 23 23 22 22 22 22
16 14 14 16 17 16 13 12 11 11 11 12 11 10 10 10 9 9 9 10 10 10 10 9 9 9 10 13 14 13 10 8 8 9 10 10 10 10 10 9 9 9 9 9 8 9 10 11 11 12 12 11 11 11 11 11 14 15 15 17 20 22 23 22 22 23 23 22 22 22 22 21 21 20 19 19 19 19 19 20 20 20 20 20 20
16 15 15 14 15 15 14 13 12 11 11 12 12 12 12 11 11 10 10 10 10 11 10 10 10 10 10 11 11 10 9 9 9 10 11 11 11 11 10 10 10 10 10 10 10 10 12 12 11 11 12 11 11 11 10 9 11 12 13 14 18 20 21 21 21 22 21 20 20 21 21 20 20 19 18 17 17 17 17 18 18 18 19 19 19
16 15 15 14 14 14 14 13 13 13 12 12 13 12 12 13 12 12 12 11 11 11 11 11 11 11 11 11 11 11 11 11 10 11 11 11 11 11 11 11 11 11 11 11 11 12 14 14 12 11 12 12 11 11 10 8 9 11 10 12 16 19 20 19 19 20 19 19 20 20 20 19 18 17 17 15 14 14 15 15 16 16 16 16 16
15 14 14 14 14 14 14 13 13 13 13 13 13 13 13 13 13 13 13 13 12 12 12 12 12 12 12 12 12 12 12 11 11 11 11 11 12 12 12 12 12 12 13 13 13 13 14 14 14 13 13 12 12 12 11 9 9 10 9 10 14 17 19 18 18 18 18 18 18 19 19 18 17 16 16 15 13 13 12 12 13 14 14 13 12
15 14 14 14 14 13 14 13 13 14 14 13 14 14 13 13 13 13 13 13 14 14 13 13 14 14 14 14 13 13 13 13 13 12 12 12 12 13 13 13 13 14 14 15 14 14 15 16 16 15 14 13 12 13 12 11 10 10 9 10 14 16 17 16 16 16 16 16 17 17 17 17 16 16 15 14 13 12 11 10 10 11 12 12 11
13 13 14 15 14 14 14 13 13 14 14 14 14 14 15 14 14 14 14 13 14 14 14 14 14 14 14 14 14 14 14 14 14 14 14 13 13 13 13 13 14 15 16 17 16 16 16 17 17 16 15 14 13 13 13 13 12 11 10 12 15 16 16 15 15 15 15 15 15 15 14 15 16 15 15 15 13 12 11 8 8 10 11 11 10
13 13 13 14 15 15 14 14 14 14 14 14 15 15 15 15 16 16 15 15 15 15 15 15 15 15 15 15 15 15 15 15 15 15 15 15 15 15 15 15 15 16 17 19 20 19 17 17 17 17 17 17 16 14 14 14 13 12 12 14 16 16 15 15 15 15 14 14 14 14 14 14 14 14 14 14 13 12 11 8 7 8 10 10 10
15 14 14 14 15 15 15 15 15 15 15 15 15 15 15 16 16 16 16 16 16 16 16 16 16 16 16 17 17 16 16 16 16 16 17 18 18 17 17 18 18 17 18 19 20 20 20 19 18 19 19 19 18 18 17 16 15 15 15 16 16 16 16 15 14 14 14 14 14 13 13 13 14 14 13 13 12 12 11 9 8 9 10 10 10
Wind_Direction
101 97 97 99 99 97 94 91 93 93 93 93 93 94 93 95 97 97 99 97 91 90 88 83 76 69 65 60 56 54 49 45 45 44 42 39 37 33 27 24 19 15 14 11 4 0 359 357 354 349 345 346 346 344 341 337 333 331 328 326 322 318 316 312 307 304 301 301 301 299 298 300 300 298 298 294 289 286 280 273 271 266 259 258 258
103 100 100 99 98 98 94 94 96 93 93 93 94 99 100 99 101 99 98 97 94 90 87 82 75 69 65 63 59 57 53 49 49 49 45 42 40 35 30 27 23 20 14 7 2 1 359 357 354 351 347 347 347 345 342 338 336 334 331 328 323 318 317 314 309 307 304 304 305 303 302 304 303 298 297 295 292 291 283 274 271 268 261 255 254
106 104 104 103 101 100 97 96 96 93 95 100 102 105 105 103 102 99 95 94 93 91 86 81 78 70 63 62 61 59 56 52 51 51 48 46 44 36 29 27 24 17 10 6 3 1 0 359 356 352 349 347 346 344 341 338 336 335 332 328 324 320 317 315 310 306 305 304 305 306 306 307 304 299 298 297 294 292 287 279 272 269 266 259 253
111 110 109 107 103 101 100 97 99 102 105 108 108 108 107 104 102 100 96 92 88 87 82 76 74 71 65 62 61 60 57 53 51 50 47 47 45 37 29 28 26 17 10 7 4 2 2 360 356 353 350 349 347 345 343 339 337 336 333 330 327 323 319 316 311 307 305 303 303 305 306 306 306 304 303 301 298 296 293 289 281 272 264 259 255
116 113 111 110 107 104 102 103 108 111 112 111 111 110 109 105 101 97 94 92 89 88 86 78 70 67 66 64 61 59 56 52 50 47 42 41 43 35 25 24 22 15 11 9 4 4 3 0 357 355 354 352 350 347 344 341 339 337 336 332 328 325 321 317 314 310 306 302 302 304 306 306 306 305 304 303 302 300 296 293 289 279 268 261 259
117 115 113 112 109 106 105 108 113 114 113 112 112 111 108 104 102 99 95 91 88 88 91 89 78 67 64 63 60 57 54 50 47 44 38 41 48 35 17 18 17 11 11 8 6 7 4 2 0 357 355 354 351 347 343 341 342 341 338 332 328 325 321 319 317 313 308 303 302 303 304 305 304 303 303 301 299 299 296 292 289 284 277 270 263
120 116 115 114 113 113 114 116 117 116 115 114 113 112 110 106 105 106 103 97 89 84 83 83 77 67 61 59 56 54 53 49 45 42 36 39 46 33 13 17 16 9 10 9 8 9 6 3 1 356 357 355 348 345 343 342 343 342 338 334 332 328 323 320 318 314 310 306 303 303 302 302 301 300 302 302 298 296 295 293 290 286 285 280 271
121 118 118 118 119 120 121 120 118 116 115 115 114 113 111 109 107 107 107 104 96 86 80 75 71 64 56 54 52 47 47 45 41 40 35 32 37 32 15 14 13 9 10 10 10 9 5 4 1 357 355 350 344 344 345 343 341 339 339 338 335 331 326 323 320 316 313 309 306 305 303 302 301 301 302 303 300 296 294 294 293 290 290 287 279
124 123 123 123 123 123 122 119 116 114 111 112 112 112 112 110 107 104 104 104 101 95 89 81 72 62 54 52 50 44 42 39 34 33 31 27 34 40 21 9 12 11 8 9 10 7 5 3 358 355 349 344 345 347 348 346 342 340 341 340 337 333 331 329 326 321 315 310 307 306 304 302 301 301 300 298 296 294 293 293 292 291 291 289 282
126 125 124 123 122 121 119 115 113 112 111 109 108 109 111 111 110 108 108 108 106 101 94 87 78 65 56 52 48 44 41 37 31 29 27 23 30 43 28 7 11 11 6 9 8 4 4 1 355 353 349 347 347 347 348 349 348 345 344 340 337 336 334 332 328 321 312 307 306 305 303 300 299 299 297 295 294 292 292 291 290 290 290 288 284
127 126 125 122 120 118 115 113 111 111 111 111 111 113 113 113 112 111 111 108 105 99 94 92 86 70 57 52 49 44 39 37 31 27 27 23 28 43 35 8 9 11 8 10 6 2 1 358 356 355 352 350 347 344 347 351 351 348 345 343 343 341 334 327 323 319 312 307 304 303 300 298 297 297 295 295 295 292 290 288 287 288 287 285 285
129 128 125 122 121 119 116 117 118 119 119 119 118 116 113 111 110 108 106 104 102 99 95 91 86 72 56 49 49 46 40 38 31 27 28 24 29 44 37 12 13 14 10 9 6 2 359 356 358 356 351 350 347 345 349 351 350 349 348 349 350 346 336 325 319 318 315 310 305 302 299 296 296 296 294 294 293 291 290 287 284 285 283 280 281
132 129 127 128 129 127 126 126 125 123 122 119 117 114 111 109 105 103 101 99 96 95 91 88 87 81 63 48 47 46 42 38 31 28 29 24 30 41 34 16 19 15 10 11 7 2 359 357 358 354 352 351 347 346 349 350 350 350 349 350 349 347 344 337 327 321 315 309 305 301 299 297 293 292 291 290 289 288 287 285 282 281 279 276 276
134 133 132 132 130 127 126 125 120 117 116 114 113 112 110 107 101 97 94 90 87 84 82 82 85 84 71 48 43 45 43 38 32 30 28 26 33 38 29 18 22 16 11 12 7 2 0 359 358 354 352 352 348 347 349 350 351 352 350 349 348 349 351 346 335 326 319 314 310 304 302 298 293 291 292 290 288 286 284 283 281 277 276 275 274
135 133 131 127 124 122 121 119 115 114 115 116 115 113 108 104 101 98 93 89 85 81 76 73 74 78 77 54 40 42 43 38 33 32 30 29 36 36 25 18 20 15 12 10 7 2 359 358 356 351 351 353 351 350 352 353 354 355 354 353 352 351 352 349 340 334 331 329 324 316 309 301 293 291 292 290 286 284 281 279 277 274 272 271 273
133 132 129 126 125 124 123 121 117 115 116 116 116 112 105 101 99 96 93 87 82 78 74 70 69 72 78 68 40 38 42 37 33 33 30 30 36 36 25 18 18 12 7 8 7 1 355 355 352 347 350 357 357 357 359 359 358 358 357 357 355 352 351 349 344 341 341 340 337 329 318 306 295 288 288 289 287 286 285 281 277 275 274 272 273
135 133 131 130 130 128 127 125 121 119 118 116 115 111 107 104 100 96 94 88 81 74 69 67 67 66 72 73 50 39 40 37 33 33 30 29 35 36 27 16 15 11 4 5 7 0 354 353 349 346 352 1 4 6 8 5 2 1 359 357 355 353 352 349 347 347 349 349 346 340 329 317 303 290 287 292 294 292 289 283 278 276 274 270 269
137 135 134 133 132 131 130 128 125 123 121 120 118 112 107 104 98 94 91 88 84 78 69 63 62 60 60 61 53 43 39 35 31 31 29 29 33 36 31 22 17 11 3 4 8 4 357 351 345 345 352 2 10 15 14 8 4 2 359 357 356 355 353 353 354 355 355 354 351 346 338 331 318 302 293 297 302 298 289 282 278 275 271 267 267
140 138 137 136 135 134 133 131 129 127 125 121 117 113 109 104 99 94 90 87 85 82 75 66 61 57 51 48 47 42 37 33 30 27 27 28 32 35 33 29 32 23 5 1 4 4 0 352 345 349 358 6 12 15 12 6 4 2 358 357 358 356 355 358 359 358 356 355 354 351 348 344 336 324 313 314 318 313 298 284 275 268 265 265 265
142 140 138 138 136 136 136 135 133 131 127 122 117 112 108 103 100 97 93 92 90 83 76 67 59 56 50 42 43 42 36 30 28 26 26 27 29 32 30 25 31 33 11 357 358 359 359 353 348 355 6 12 12 10 6 2 2 2 359 358 359 358 358 0 2 0 358 357 356 356 355 352 348 343 337 338 339 332 319 295 270 261 263 266 262
143 141 140 139 138 138 139 138 135 130 126 122 118 115 112 105 100 96 89 87 85 80 75 67 57 52 48 39 36 39 36 30 27 25 26 29 29 28 27 21 20 27 15 355 353 355 355 351 347 354 6 12 10 7 3 359 359 359 357 358 360 2 2 2 2 3 3 1 359 360 359 356 354 353 351 353 355 348 342 337 293 265 264 271 265
145 142 142 140 140 143 144 140 134 129 126 122 117 114 112 108 103 97 87 78 75 74 72 70 63 54 51 40 28 29 29 26 26 24 25 32 32 27 26 20 15 21 17 353 347 348 348 346 346 353 2 6 7 7 1 357 356 355 356 360 2 4 5 4 4 5 5 3 2 2 1 358 357 359 360 1 3 360 356 4 2 313 273 274 273
145 144 144 144 146 150 148 142 135 132 132 129 122 116 110 104 100 95 87 76 71 69 66 66 65 59 58 51 35 28 21 17 23 26 27 34 34 29 26 20 15 20 18 354 344 344 345 344 346 355 1 360 3 7 1 354 354 353 357 3 5 3 2 4 7 7 4 3 4 5 2 359 359 3 6 5 5 4 3 5 12 11 343 291 273
148 147 148 148 150 150 147 141 136 134 135 130 125 122 113 104 95 88 85 79 75 71 65 63 64 58 56 51 41 37 26 13 18 24 28 33 33 29 27 21 17 20 16 358 348 348 350 348 349 357 1 355 358 7 1 353 353 351 352 359 5 4 3 5 8 7 1 1 4 4 2 1 2 7 11 10 6 3 4 8 15 18 12 349 295
151 150 150 149 150 149 147 144 142 140 139 135 129 123 113 105 97 88 84 79 73 71 66 62 61 57 54 50 40 33 27 20 20 23 27 31 32 30 26 21 21 22 15 5 3 4 5 357 351 357 2 350 353 5 1 354 356 354 351 354 1 3 4 5 6 5 2 1 3 2 1 3 6 10 15 16 13 10 9 16 28 38 39 37 33
152 151 151 151 151 151 151 150 148 144 141 137 130 119 109 105 101 92 88 82 75 72 69 62 59 54 49 47 42 31 22 21 24 27 29 30 31 31 26 21 24 26 19 15 17 18 16 5 353 359 5 352 352 3 1 355 359 358 354 355 356 358 0 2 3 3 2 2 3 2 2 4 8 14 19 21 21 20 19 23 33 45 49 48 47
152 152 153 153 153 155 155 153 148 144 140 136 128 119 112 106 103 96 90 85 75 66 65 63 59 54 48 43 42 34 21 20 25 29 30 30 31 32 28 23 24 27 25 24 25 23 18 6 353 357 3 354 354 3 2 357 359 359 357 357 355 354 356 359 1 1 1 2 4 5 6 9 11 16 21 24 25 26 26 27 34 42 48 51 49
153 154 155 155 156 157 156 151 147 145 142 133 123 119 112 103 104 112 118 123 120 98 77 71 64 54 46 44 46 38 22 21 25 28 29 29 30 29 28 25 25 27 27 26 25 23 15 0 351 355 359 355 357 2 2 359 359 359 359 359 357 355 355 356 358 358 358 1 4 6 9 13 14 16 21 25 28 29 29 30 32 36 43 52 52
155 156 156 157 158 158 156 151 148 147 143 137 142 151 146 130 114 117 127 133 135 129 113 105 100 85 57 41 48 49 33 27 28 28 29 29 29 28 28 27 26 29 29 25 22 18 7 354 351 355 356 356 358 359 0 1 359 358 359 0 359 358 357 357 357 357 359 3 5 6 9 12 14 16 21 26 30 32 33 34 33 33 38 47 51
158 159 159 160 159 158 156 153 150 147 142 137 145 154 151 139 122 107 107 113 118 117 109 99 96 96 88 56 48 49 40 31 28 28 29 30 30 32 34 33 30 29 28 24 21 14 0 352 354 356 355 356 358 357 358 0 360 358 360 1 1 360 358 359 360 0 2 4 6 7 9 12 14 17 20 24 28 33 37 39 38 35 36 40 45
161 162 163 163 161 159 158 155 152 150 148 144 141 135 122 104 88 80 79 81 85 88 86 79 78 82 83 68 50 45 38 29 26 27 28 27 28 33 37 35 31 28 24 22 19 11 358 353 356 357 356 357 357 356 356 358 360 359 359 359 0 1 0 0 1 2 3 5 6 7 9 12 15 18 20 22 26 31 36 40 41 40 40 39 40
165 165 165 165 161 159 159 157 154 155 158 158 160 161 156 128 61 54 54 52 51 55 60 60 61 62 58 49 42 39 35 27 22 25 26 23 25 33 35 29 24 21 21 20 14 3 357 357 358 357 357 357 356 355 355 356 358 359 360 359 359 360 360 360 1 3 4 5 6 8 10 12 14 18 21 23 26 29 33 37 40 42 44 45 44
167 166 166 166 164 162 161 161 158 158 160 163 169 175 180 194 232 311 358 15 24 31 37 40 43 44 44 40 35 33 31 27 24 25 24 21 27 34 34 27 18 14 15 16 8 358 358 0 359 358 358 357 356 355 354 354 356 357 359 359 359 358 358 358 1 4 6 6 8 9 11 11 12 14 18 21 25 29 31 34 38 42 45 48 50
169 170 170 168 166 165 164 164 163 163 165 167 169 172 175 175 187 234 287 324 344 351 359 10 24 35 34 29 28 28 25 25 26 23 20 23 31 35 32 25 16 10 11 10 2 356 358 360 358 359 359 357 356 356 355 355 356 356 356 358 357 358 359 359 1 4 5 6 9 11 12 13 13 13 14 17 22 27 29 32 37 41 45 48 51
171 175 174 170 167 167 168 168 169 170 172 173 172 174 178 174 170 189 218 257 302 311 316 324 341 6 15 13 15 19 18 22 28 25 22 26 33 36 31 22 11 5 6 6 359 355 358 358 357 358 358 356 357 357 355 355 356 355 356 356 356 357 359 359 1 4 4 5 8 11 13 15 16 17 16 16 18 23 27 30 36 41 46 51 52
171 174 175 170 169 172 172 171 174 176 175 178 179 176 177 182 186 190 195 199 217 240 266 294 310 327 341 351 359 2 5 17 23 20 21 25 29 31 28 14 359 356 0 0 357 357 357 356 355 357 356 355 356 356 355 356 356 354 355 356 355 356 358 359 1 5 5 4 7 11 14 15 16 19 21 21 20 22 24 29 36 41 45 50 53
174 175 175 172 172 177 174 173 181 183 176 175 181 182 185 194 201 207 212 214 222 231 224 236 279 304 317 327 337 342 352 9 9 4 6 10 13 18 18 1 346 350 356 355 355 357 357 354 355 356 355 355 356 356 355 356 355 354 355 356 355 356 359 359 1 7 8 5 5 10 13 15 16 18 21 23 24 24 24 27 34 41 45 48 51
177 178 178 173 171 176 176 177 186 190 184 179 184 191 197 205 209 216 222 222 223 236 240 231 247 280 298 310 323 333 344 354 354 351 352 354 354 358 357 343 336 345 350 348 351 355 355 354 354 355 355 356 356 356 355 355 355 356 356 355 355 359 2 0 3 10 11 6 5 8 11 12 15 18 20 22 25 26 27 27 30 37 44 47 48
177 179 180 175 171 174 179 181 187 192 192 194 200 205 208 215 221 224 229 230 230 235 242 243 248 260 267 276 305 325 332 333 331 330 330 331 332 333 333 330 333 339 341 343 347 350 352 353 353 353 355 357 359 359 357 356 357 359 358 357 358 4 6 3 5 13 15 8 4 8 10 11 12 16 19 22 24 27 29 30 30 33 38 44 47
174 178 183 180 173 175 183 185 185 190 195 199 208 215 216 220 228 230 229 230 232 236 240 244 253 259 246 237 260 291 304 300 299 302 304 307 315 321 321 321 325 328 331 337 340 342 346 349 350 349 351 356 1 2 1 0 2 2 1 0 3 7 8 6 8 15 17 12 6 7 10 12 12 14 17 21 24 26 29 32 33 33 35 39 46
173 180 187 186 177 176 186 189 188 194 199 203 211 218 219 222 228 232 234 233 231 235 242 247 253 254 246 248 268 290 298 290 283 287 292 297 302 307 308 311 315 319 322 327 329 332 336 339 343 345 347 352 357 358 359 4 6 4 2 2 5 8 9 9 11 16 19 17 12 9 9 11 13 15 17 20 23 25 28 31 34 37 37 38 41
176 182 190 189 182 180 189 193 193 199 204 207 214 219 220 226 232 232 235 236 232 235 244 247 250 257 260 264 277 294 299 289 277 275 279 286 292 294 297 301 304 306 311 315 318 321 325 328 334 339 341 346 350 348 350 358 1 1 1 2 4 9 10 10 12 16 18 20 19 14 9 11 14 16 18 20 22 26 29 31 34 38 40 41 41
181 181 186 188 187 188 194 196 199 206 210 211 218 223 223 229 236 234 235 235 233 235 244 246 246 256 265 271 281 295 300 290 275 269 272 277 281 285 289 293 292 293 299 305 307 308 312 318 325 331 336 343 345 341 342 347 350 353 357 357 1 8 10 9 13 17 15 17 21 17 11 10 12 13 19 22 22 25 31 33 36 39 41 43 47
186 184 183 188 192 196 199 202 205 212 215 216 221 225 227 230 235 237 236 237 233 233 239 244 245 248 258 268 281 294 296 278 266 267 271 274 277 280 282 282 281 283 289 294 294 296 301 309 318 326 332 338 340 339 340 339 338 343 350 349 353 3 7 8 14 17 12 12 18 19 15 13 11 11 18 23 20 21 27 31 32 37 41 42 47
188 189 188 189 194 199 204 209 212 216 220 222 223 226 228 230 233 236 236 236 234 234 236 242 244 243 247 259 271 280 278 268 266 270 271 271 274 275 275 275 276 277 282 287 287 288 295 303 312 319 323 329 333 336 341 337 329 333 340 339 343 354 1 4 11 16 12 11 18 20 18 16 13 10 15 20 19 19 23 24 25 31 37 39 43
186 191 194 194 198 202 206 211 216 218 222 224 225 227 230 231 232 236 236 234 235 237 238 241 245 246 247 251 256 260 263 264 267 270 271 271 272 271 270 270 271 270 273 279 280 283 291 301 307 311 317 324 327 330 337 337 325 324 329 326 330 344 354 358 5 12 11 12 19 20 16 17 19 16 15 19 21 20 22 25 25 25 30 35 39
188 194 198 198 203 208 209 214 220 221 223 226 226 228 231 232 231 233 235 234 234 238 240 243 247 249 250 253 256 257 261 264 266 269 270 271 271 270 268 267 266 266 270 275 277 278 285 294 299 304 311 317 317 320 330 331 314 313 318 312 315 332 346 352 358 4 6 9 17 19 14 12 16 18 18 21 24 20 20 28 30 22 18 23 28
193 200 204 203 207 212 213 216 221 222 223 227 228 228 231 233 233 234 236 235 236 238 241 245 249 251 253 255 256 257 260 263 265 267 270 272 272 272 269 266 264 265 270 276 277 276 279 285 290 295 301 306 308 314 323 322 310 307 307 299 304 322 338 343 348 356 359 1 9 15 13 11 14 16 16 18 21 19 16 25 36 30 16 9 13
200 205 208 208 212 215 216 219 224 224 225 228 230 230 232 233 233 236 238 239 240 242 243 246 249 251 253 256 257 258 260 263 264 266 270 273 274 272 269 266 264 265 271 279 282 281 281 285 290 294 298 301 303 306 310 312 310 306 294 288 299 316 328 332 337 345 349 354 0 5 7 9 12 15 15 14 14 16 13 13 28 33 19 2 358
208 210 212 213 215 219 221 223 226 227 228 229 230 232 233 233 235 237 239 240 242 245 246 248 251 253 255 257 259 259 260 262 264 269 273 275 276 276 274 272 269 266 269 278 286 289 287 285 286 289 292 296 299 300 302 305 307 303 292 291 301 312 318 321 326 332 336 342 349 353 358 2 3 8 13 13 10 10 8 6 20 32 19 0 352
212 215 218 219 220 222 224 227 230 232 233 233 233 233 234 235 236 238 239 240 243 246 248 251 254 256 257 259 260 261 261 261 264 270 275 276 277 277 277 276 273 268 266 271 280 287 289 287 284 283 285 289 294 298 301 302 301 298 296 299 304 308 308 310 316 321 325 331 335 340 347 352 351 353 2 8 9 7 4 3 15 24 11 351 344